Change the Weather History Date:

Thursday, April 11, 2013

  Actual Average Record
Temperature  
Mean Temperature 39 °F -  
Max Temperature 41 °F 53 °F 80 °F (1977)
Min Temperature 37 °F 29 °F 17 °F (1989)
Degree Days  
Heating Degree Days 26    
Moisture  
Dew Point 38 °F    
Average Humidity 97    
Maximum Humidity 99    
Minimum Humidity 93    
Precipitation  
Precipitation 0.00 in - - ()
Sea Level Pressure  
Sea Level Pressure 29.77 in    
Wind  
Wind Speed 17 mph (East)    
Max Wind Speed 24 mph    
Max Gust Speed 33 mph    
Visibility 3 miles    
Events Fog , Rain , Snow    
Averages and records for this station are not official NWS values.
T = Trace of Precipitation, MM = Missing Value Source: NWS Daily Summary

Daily Weather History Graph

Daily Weather History Graph

Search for Another Location

Airport or City:

Trip Planner

Search our weather history database for the weather conditions in past years. The results will help you decide how hot, cold, wet, or windy it might be!

Date:

Astronomy

Apr. 11, 2013 Rise Set
Actual Time 7:04 AM EDT 8:15 PM EDT
Civil Twilight 6:35 AM EDT 8:44 PM EDT
Nautical Twilight 6:01 AM EDT 9:18 PM EDT
Astronomical Twilight 5:25 AM EDT 9:54 PM EDT
Moon 7:33 AM EDT (4/11) 9:50 PM EDT (4/11)
Length of Visible Light 14h 08m
Length of Day
13h 11m
New Moon, 2% of the Moon is Illuminated
Apr 11
New Moon
Apr 18
First Quarter
Apr 25
Full
May 2
Last Quarter
May 9
New

Hourly Weather History & Observations

Time (EDT) Temp. Windchill Dew Point Humidity Pressure Visibility Wind Dir Wind Speed Gust Speed Precip Events Conditions
12:14 AM 41.4 °F 33.0 °F 41.0 °F 99% 29.87 in 1.2 mi East 17.3 mph - N/A   Overcast
12:35 AM 41.4 °F 33.0 °F 40.8 °F 98% 29.86 in 1.5 mi East 17.3 mph - N/A   Overcast
12:55 AM 41.5 °F 34.6 °F 41.0 °F 98% 29.90 in 1.8 mi East 12.7 mph 20.7 mph N/A   Overcast
1:14 AM 41.2 °F 33.4 °F 40.6 °F 98% 29.89 in 2.0 mi East 15.0 mph - N/A   Overcast
1:35 AM 41.2 °F 33.4 °F 40.6 °F 98% 29.91 in 2.5 mi East 15.0 mph - N/A Rain Light Rain
1:55 AM 40.8 °F 32.9 °F 40.5 °F 99% 29.86 in 2.5 mi ENE 15.0 mph 18.4 mph N/A   Overcast
2:14 AM 40.6 °F 32.3 °F 40.3 °F 99% 29.87 in 5.0 mi East 16.1 mph - N/A Rain Light Rain
2:35 AM 40.5 °F 31.5 °F 39.9 °F 98% 29.85 in 5.0 mi East 18.4 mph - N/A Rain Light Rain
2:54 AM 40.3 °F 33.0 °F 39.6 °F 97% 29.83 in 5.0 mi ENE 12.7 mph - N/A Rain Light Rain
3:14 AM 40.3 °F 33.4 °F 39.4 °F 97% 29.86 in 1.2 mi ENE 11.5 mph 17.3 mph N/A   Overcast
3:35 AM 40.3 °F 32.6 °F 39.4 °F 97% 29.84 in 3.0 mi NE 13.8 mph 18.4 mph N/A   Overcast
3:54 AM 40.3 °F 33.0 °F 39.4 °F 97% 29.82 in 1.2 mi ENE 12.7 mph 19.6 mph N/A   Overcast
4:14 AM 41.0 °F 33.5 °F 39.6 °F 95% 29.86 in 1.8 mi ENE 13.8 mph 27.6 mph N/A   Overcast
4:35 AM 40.6 °F 33.4 °F 38.8 °F 93% 29.86 in 5.0 mi East 12.7 mph 19.6 mph N/A Rain Light Rain
4:54 AM 40.6 °F 32.0 °F 39.2 °F 95% 29.84 in 5.0 mi East 17.3 mph - N/A Rain Light Rain
5:14 AM 40.6 °F 32.0 °F 39.2 °F 95% 29.82 in 3.0 mi East 17.3 mph 21.9 mph N/A   Overcast
5:35 AM 40.6 °F 33.4 °F 39.4 °F 95% 29.82 in 5.0 mi East 12.7 mph 21.9 mph N/A   Overcast
5:54 AM 40.6 °F 34.3 °F 39.4 °F 95% 29.83 in 10.0 mi East 10.4 mph - N/A Rain Light Rain
6:15 AM 40.6 °F 33.0 °F 39.6 °F 96% 29.82 in 10.0 mi East 13.8 mph - N/A   Overcast
6:35 AM 40.6 °F 32.7 °F 39.6 °F 96% 29.84 in 10.0 mi East 15.0 mph - N/A   Overcast
6:54 AM 40.5 °F 32.1 °F 39.4 °F 96% 29.83 in 10.0 mi East 16.1 mph - N/A   Overcast
7:15 AM 40.5 °F 32.5 °F 39.4 °F 96% 29.83 in 10.0 mi East 15.0 mph 25.3 mph N/A   Overcast
7:34 AM 40.5 °F 32.1 °F 39.4 °F 96% 29.85 in 10.0 mi East 16.1 mph 23.0 mph N/A   Overcast
7:54 AM 40.6 °F 31.4 °F 39.4 °F 95% 29.83 in 10.0 mi East 19.6 mph 25.3 mph N/A Rain Light Rain
8:15 AM 40.5 °F 32.1 °F 39.4 °F 96% 29.83 in 10.0 mi East 16.1 mph 26.5 mph N/A   Overcast
8:34 AM 40.5 °F 31.8 °F 39.6 °F 97% 29.82 in 5.0 mi East 17.3 mph 26.5 mph N/A   Overcast
8:54 AM 40.5 °F 32.1 °F 39.6 °F 97% 29.84 in 5.0 mi East 16.1 mph 21.9 mph N/A   Overcast
9:15 AM 40.5 °F 31.5 °F 39.6 °F 97% 29.83 in 7.0 mi East 18.4 mph 24.2 mph N/A   Overcast
9:34 AM 40.5 °F 30.4 °F 39.4 °F 96% 29.80 in 7.0 mi East 23.0 mph 29.9 mph N/A   Overcast
9:54 AM 40.3 °F 31.6 °F 39.2 °F 96% 29.81 in 3.0 mi East 17.3 mph 21.9 mph N/A   Overcast
10:15 AM 39.9 °F 31.1 °F 39.0 °F 97% 29.81 in 4.0 mi East 17.3 mph 28.8 mph N/A   Overcast
10:34 AM 40.3 °F 32.2 °F 39.4 °F 97% 29.82 in 2.5 mi East 15.0 mph 24.2 mph N/A   Overcast
10:54 AM 39.7 °F 30.0 °F 38.8 °F 97% 29.81 in 1.8 mi East 20.7 mph 31.1 mph N/A   Overcast
11:15 AM 39.7 °F 30.3 °F 38.8 °F 97% 29.81 in 1.8 mi East 19.6 mph 28.8 mph N/A   Overcast
11:34 AM 39.7 °F 30.3 °F 39.0 °F 97% 29.80 in 2.0 mi East 19.6 mph 26.5 mph N/A   Overcast
11:55 AM 39.7 °F 30.3 °F 39.0 °F 97% 29.81 in 1.8 mi East 19.6 mph 27.6 mph N/A   Overcast
12:15 PM 39.7 °F 29.5 °F 39.0 °F 97% 29.80 in 1.8 mi East 23.0 mph 31.1 mph N/A   Overcast
12:34 PM 39.7 °F 29.2 °F 39.0 °F 97% 29.79 in 1.5 mi East 24.2 mph 28.8 mph N/A   Overcast
1:14 PM 39.4 °F 29.5 °F 38.5 °F 97% 29.81 in 10.0 mi East 20.7 mph 33.4 mph N/A   Overcast
1:34 PM 39.2 °F 29.3 °F 38.5 °F 97% 29.81 in 2.5 mi East 20.7 mph 27.6 mph N/A   Overcast
1:55 PM 38.7 °F 28.8 °F 37.9 °F 97% 29.78 in 0.8 mi East 19.6 mph 28.8 mph N/A   Overcast
2:14 PM 38.7 °F 29.5 °F 37.9 °F 97% 29.77 in 0.8 mi ESE 17.3 mph 29.9 mph N/A   Overcast
2:35 PM 38.1 °F 27.6 °F 37.6 °F 98% 29.76 in 0.5 mi East 21.9 mph 31.1 mph N/A Fog Fog
2:54 PM 38.7 °F 29.1 °F 37.9 °F 97% 29.76 in 0.2 mi East 18.4 mph 24.2 mph N/A Fog Fog
3:14 PM 37.9 °F 27.3 °F 37.6 °F 99% 29.75 in 0.5 mi East 21.9 mph 28.8 mph N/A Fog Fog
3:35 PM 37.8 °F 26.6 °F 37.2 °F 98% 29.73 in 0.2 mi East 24.2 mph 27.6 mph N/A Fog Fog
3:54 PM 37.8 °F 27.4 °F 37.2 °F 98% 29.74 in 0.2 mi East 20.7 mph 24.2 mph N/A Fog Fog
4:14 PM 37.4 °F 28.5 °F 37.0 °F 99% 29.74 in 0.2 mi SE 15.0 mph 31.1 mph N/A Fog Fog
4:35 PM 37.2 °F 26.4 °F 36.9 °F 99% 29.73 in 0.2 mi ESE 21.9 mph 26.5 mph N/A Fog Fog
4:54 PM 37.2 °F 27.0 °F 36.9 °F 99% 29.72 in 0.2 mi East 19.6 mph 27.6 mph N/A Fog Fog
5:14 PM 37.2 °F 27.0 °F 36.9 °F 99% 29.71 in 0.2 mi ESE 19.6 mph 27.6 mph N/A Fog Fog
5:35 PM 37.2 °F 27.6 °F 36.9 °F 99% 29.71 in 0.5 mi East 17.3 mph 24.2 mph N/A Fog Fog
5:54 PM 37.6 °F 27.4 °F 37.0 °F 98% 29.71 in 0.5 mi East 19.6 mph 25.3 mph N/A Fog Fog
6:15 PM 37.8 °F 29.0 °F 37.2 °F 98% 29.71 in 0.2 mi ESE 15.0 mph 25.3 mph N/A Fog Fog
6:34 PM 37.8 °F 28.0 °F 37.2 °F 98% 29.70 in 0.2 mi East 18.4 mph 25.3 mph N/A Fog Fog
6:54 PM 37.8 °F 29.0 °F 37.4 °F 99% 29.69 in 0.2 mi East 15.0 mph - N/A   Overcast
7:15 PM 37.2 °F 28.3 °F 37.0 °F 99% 29.68 in 0.5 mi East 15.0 mph - N/A Rain Light Rain
7:34 PM 37.2 °F 28.3 °F 37.0 °F 99% 29.68 in 0.8 mi East 15.0 mph 25.3 mph N/A Snow Light Snow
7:55 PM 37.2 °F 27.3 °F 37.0 °F 99% 29.66 in 1.8 mi East 18.4 mph 25.3 mph N/A Snow Light Snow
8:15 PM 37.2 °F 27.6 °F 37.0 °F 99% 29.66 in 4.0 mi East 17.3 mph 23.0 mph N/A Snow Light Snow
8:34 PM 37.2 °F 27.0 °F 37.0 °F 99% 29.66 in 2.5 mi East 19.6 mph - N/A Rain Light Rain
8:55 PM 37.2 °F 27.6 °F 37.0 °F 99% 29.66 in 4.0 mi East 17.3 mph 21.9 mph N/A Snow Light Snow
9:14 PM 37.2 °F 26.4 °F 37.0 °F 99% 29.62 in 4.0 mi East 21.9 mph 28.8 mph N/A Snow Light Snow
9:34 PM 37.2 °F 26.1 °F 36.9 °F 99% 29.61 in 4.0 mi East 23.0 mph 26.5 mph N/A Snow Light Snow
9:55 PM 37.2 °F 27.3 °F 36.9 °F 99% 29.61 in 10.0 mi East 18.4 mph 25.3 mph N/A Snow Light Snow
10:14 PM 37.2 °F 28.3 °F 36.9 °F 99% 29.61 in 7.0 mi East 15.0 mph 26.5 mph N/A   Overcast
10:35 PM 37.2 °F 28.3 °F 36.7 °F 98% 29.60 in 2.0 mi East 15.0 mph 23.0 mph N/A Snow Light Snow
10:54 PM 37.2 °F 29.6 °F 36.7 °F 98% 29.62 in 2.0 mi East 11.5 mph - N/A Snow Light Snow
11:14 PM 37.2 °F 29.6 °F 36.7 °F 98% 29.60 in 2.0 mi East 11.5 mph 19.6 mph N/A Rain Light Rain
11:35 PM 37.2 °F 30.6 °F 36.7 °F 98% 29.61 in 3.0 mi East 9.2 mph 18.4 mph N/A Rain Light Rain
11:54 PM 37.2 °F 29.1 °F 36.7 °F 98% 29.58 in 2.5 mi East 12.7 mph 17.3 mph N/A Rain Light Rain